Location: *
(49.4547°N, 7.9131°E)
Time: 09:16:24
(UTC+00:00)

Meteor 1-21 Rocket - Pass Details

Date: 22 September 2019
Orbit: 834 x 907 km, 81.2° (Epoch: 14 October)

Event Time Altitude Azimuth Distance (km) Brightness Sun altitude
Rises 20:33:05 0° 346° (NNW) 3,528 8.2 -28.7°
Reaches altitude 10° 20:35:33 10° 345° (NNW) 2,590 7.4 -29.0°
Maximum altitude 20:41:27 74° 262° (W) 944 4.4 -29.8°
Enters shadow 20:41:32 74° 254° (WSW) 945 4.4 -29.8°
